Location: Mount Cross
(36.6390°N, 79.4878°W)
Time: 19:46:28
(UTC+00:00)

Transit 2A Rocket - Visible Passes

Search period start: 21 March 2023 00:00
Search period end: 31 March 2023 00:00
Orbit: 583 x 916 km, 66.7° (Epoch: 21 March)

Date Brightness Start Highest point End Pass type
(mag) Time Alt. Az. Time Alt. Az. Time Alt. Az.
21 Mar 6.8 01:34:12 10° N 01:38:04 22° NE 01:38:04 22° NE visible
21 Mar 7.5 03:16:02 10° NW 03:17:57 21° NW 03:17:57 21° NW visible
22 Mar 7.1 00:51:55 10° N 00:55:14 15° NE 00:56:19 14° NE visible
22 Mar 6.6 02:32:42 10° NNW 02:36:11 36° NNW 02:36:11 36° NNW visible
23 Mar 5.9 01:49:38 10° NNW 01:54:28 43° NNE 01:54:28 43° NNE visible
23 Mar 7.8 03:32:59 10° NW 03:34:21 15° WNW 03:34:21 15° WNW visible
24 Mar 6.2 01:06:47 10° N 01:12:03 29° NE 01:12:49 29° ENE visible
24 Mar 6.8 02:49:07 10° NW 02:52:42 32° WNW 02:52:42 32° WNW visible
25 Mar 6.8 00:24:13 10° N 00:28:25 19° NE 00:31:13 14° E visible
25 Mar 5.5 02:05:38 10° NNW 02:11:06 69° WNW 02:11:06 69° WNW visible
26 Mar 5.3 01:22:25 10° NNW 01:28:29 64° ENE 01:29:34 54° ESE visible
26 Mar 7.5 03:06:36 10° WNW 03:09:28 17° W 03:09:28 17° W visible
27 Mar 5.9 00:39:25 10° NNW 00:45:05 38° NE 00:48:07 23° ESE visible
27 Mar 6.6 02:22:18 10° NW 02:27:31 31° WSW 02:28:01 31° WSW visible
27 Mar 6.5 23:56:40 10° N 00:01:32 24° NE 00:06:12 10° ESE visible
28 Mar 5.8 01:38:37 10° NW 01:44:31 56° WSW 01:46:39 36° S visible
29 Mar 5.2 00:55:16 10° NNW 01:01:21 86° ENE 01:05:23 21° SSE visible
29 Mar 7.8 02:40:50 10° WNW 02:43:00 12° W 02:45:08 10° WSW visible
30 Mar 5.5 00:12:08 10° NNW 00:18:03 51° ENE 00:23:37 10° SE visible
30 Mar 7.3 01:55:40 10° NW 02:00:12 23° WSW 02:04:08 11° SSW visible
